QPF
0.10 0.10 0.07 0.06 0.06 0.06 0.06 0.05 0.04 0.03 0.03 0.02 0.02 0.01 0.01 0.01 0.02 0.03 0.04 0.03 0.03 0.04 0.06 0.09 0.11 0.10 0.09 0.09 0.09 0.09 0.08 0.07 0.07 0.07 0.07 0.06 0.06 0.07 0.07 0.06 0.06 0.06 0.05
0.11 0.11 0.09 0.07 0.07 0.07 0.07 0.06 0.05 0.05 0.04 0.03 0.02 0.02 0.02 0.02 0.03 0.05 0.07 0.06 0.03 0.03 0.06 0.08 0.10 0.12 0.13 0.11 0.10 0.09 0.08 0.08 0.08 0.08 0.07 0.07 0.06 0.06 0.05 0.05 0.05 0.05 0.05
0.10 0.10 0.11 0.08 0.07 0.09 0.09 0.08 0.07 0.07 0.05 0.05 0.04 0.03 0.04 0.04 0.04 0.04 0.05 0.07 0.06 0.03 0.03 0.04 0.05 0.07 0.10 0.10 0.09 0.08 0.10 0.09 0.08 0.07 0.06 0.05 0.06 0.06 0.05 0.05 0.05 0.05 0.06
0.10 0.10 0.11 0.09 0.10 0.11 0.11 0.10 0.10 0.10 0.08 0.06 0.06 0.05 0.05 0.05 0.04 0.04 0.06 0.07 0.10 0.09 0.06 0.05 0.05 0.06 0.07 0.07 0.08 0.06 0.07 0.07 0.06 0.06 0.05 0.04 0.04 0.04 0.04 0.04 0.04 0.04 0.04
0.10 0.10 0.10 0.10 0.12 0.14 0.15 0.15 0.15 0.15 0.12 0.10 0.09 0.07 0.06 0.05 0.06 0.05 0.06 0.07 0.10 0.10 0.09 0.06 0.04 0.04 0.05 0.07 0.07 0.06 0.06 0.06 0.06 0.06 0.05 0.05 0.05 0.04 0.04 0.03 0.03 0.03 0.03
0.11 0.13 0.12 0.10 0.13 0.16 0.17 0.19 0.18 0.18 0.17 0.16 0.12 0.08 0.07 0.06 0.06 0.06 0.06 0.06 0.07 0.07 0.07 0.06 0.06 0.04 0.03 0.03 0.04 0.05 0.05 0.05 0.06 0.06 0.06 0.06 0.04 0.03 0.03 0.04 0.04 0.04 0.04
0.15 0.15 0.14 0.14 0.15 0.17 0.18 0.20 0.19 0.19 0.21 0.19 0.16 0.10 0.06 0.05 0.05 0.06 0.06 0.05 0.05 0.05 0.05 0.05 0.04 0.04 0.04 0.04 0.05 0.04 0.04 0.03 0.04 0.04 0.05 0.05 0.03 0.03 0.03 0.03 0.03 0.03 0.02
0.19 0.22 0.23 0.22 0.22 0.21 0.23 0.25 0.23 0.22 0.20 0.20 0.19 0.17 0.11 0.07 0.05 0.05 0.05 0.04 0.04 0.04 0.04 0.04 0.03 0.03 0.03 0.03 0.03 0.03 0.02 0.02 0.01 0.02 0.04 0.07 0.05 0.04 0.03 0.03 0.02 0.02 0.02
0.13 0.18 0.21 0.23 0.24 0.22 0.23 0.28 0.28 0.26 0.22 0.20 0.20 0.22 0.18 0.13 0.09 0.07 0.05 0.04 0.04 0.04 0.03 0.03 0.03 0.03 0.02 0.02 0.02 0.02 0.01 0.01 0.01 0.02 0.03 0.04 0.03 0.03 0.02 0.02 0.01 0.01 0.01
0.17 0.16 0.19 0.20 0.19 0.19 0.21 0.24 0.30 0.29 0.27 0.25 0.24 0.22 0.19 0.15 0.12 0.10 0.07 0.05 0.04 0.04 0.03 0.03 0.03 0.02 0.02 0.01 0.02 0.02 0.02 0.02 0.02 0.02 0.02 0.02 0.03 0.02 0.02 0.02 0.01 0.01 0.01
0.17 0.14 0.11 0.12 0.13 0.13 0.16 0.21 0.27 0.32 0.32 0.30 0.29 0.26 0.23 0.18 0.13 0.09 0.09 0.07 0.06 0.05 0.04 0.03 0.02 0.01 0.01 0.01 0.02 0.03 0.03 0.02 0.02 0.01 0.01 0.01 0.01 0.01 0.01 0.01 0.01 0.01 0.01
0.11 0.09 0.08 0.07 0.08 0.09 0.09 0.12 0.17 0.24 0.31 0.33 0.34 0.33 0.30 0.27 0.22 0.17 0.13 0.12 0.10 0.08 0.06 0.04 0.03 0.02 0.02 0.02 0.02 0.03 0.03 0.02 0.02 0.01 0.01 0.00 0.00 0.00 0.00 0.00 0.00 0.00 0.01
0.08 0.07 0.06 0.06 0.07 0.08 0.08 0.10 0.14 0.21 0.27 0.31 0.35 0.36 0.35 0.32 0.28 0.26 0.24 0.22 0.18 0.15 0.10 0.08 0.06 0.05 0.04 0.03 0.03 0.03 0.03 0.03 0.02 0.01 0.01 0.01 0.01 0.01 0.00 0.00 0.00 0.00 0.00
0.07 0.06 0.05 0.04 0.06 0.07 0.08 0.08 0.11 0.15 0.20 0.25 0.32 0.36 0.37 0.35 0.33 0.31 0.30 0.28 0.27 0.23 0.17 0.14 0.12 0.09 0.06 0.05 0.05 0.04 0.03 0.03 0.02 0.01 0.01 0.01 0.01 0.01 0.00 0.00 0.00 0.00 0.00
0.05 0.05 0.04 0.03 0.04 0.06 0.08 0.08 0.09 0.12 0.14 0.17 0.24 0.31 0.34 0.34 0.30 0.30 0.31 0.30 0.28 0.27 0.25 0.21 0.16 0.11 0.07 0.05 0.05 0.03 0.02 0.03 0.02 0.02 0.01 0.01 0.01 0.01 0.01 0.00 0.00 0.00 0.00
0.04 0.04 0.03 0.03 0.03 0.04 0.06 0.08 0.08 0.10 0.13 0.14 0.16 0.20 0.26 0.28 0.28 0.28 0.28 0.27 0.24 0.21 0.20 0.17 0.14 0.10 0.07 0.04 0.03 0.02 0.02 0.01 0.01 0.01 0.00 0.00 0.00 0.00 0.00 0.00 0.00 0.00 0.00
0.03 0.03 0.02 0.03 0.04 0.04 0.05 0.07 0.08 0.07 0.09 0.12 0.16 0.18 0.21 0.23 0.25 0.27 0.26 0.25 0.24 0.21 0.19 0.16 0.11 0.08 0.05 0.03 0.02 0.01 0.01 0.01 0.01 0.00 0.00 0.00 0.00 0.00 0.00 0.00 0.00 0.00 0.00
0.02 0.03 0.03 0.04 0.05 0.07 0.07 0.06 0.07 0.08 0.08 0.08 0.11 0.13 0.16 0.18 0.18 0.19 0.18 0.18 0.18 0.16 0.13 0.12 0.09 0.06 0.04 0.02 0.02 0.01 0.01 0.01 0.01 0.00 0.00 0.00 0.00 0.00 0.00 0.00 0.00 0.00 0.00
0.01 0.02 0.03 0.04 0.06 0.07 0.08 0.07 0.07 0.07 0.08 0.08 0.08 0.08 0.10 0.11 0.11 0.11 0.10 0.09 0.09 0.08 0.06 0.05 0.05 0.04 0.03 0.02 0.01 0.01 0.01 0.00 0.00 0.00 0.00 0.00 0.00 0.00 0.00 0.00 0.00 0.00 0.00
0.03 0.04 0.04 0.06 0.06 0.06 0.07 0.07 0.08 0.09 0.09 0.09 0.09 0.08 0.08 0.08 0.07 0.07 0.06 0.05 0.04 0.03 0.03 0.02 0.02 0.02 0.01 0.01 0.01 0.01 0.00 0.00 0.00 0.00 0.00 0.00 0.00 0.00 0.00 0.00 0.00 0.00 0.00
0.04 0.05 0.06 0.08 0.08 0.06 0.07 0.07 0.07 0.08 0.08 0.07 0.06 0.05 0.05 0.05 0.05 0.04 0.03 0.03 0.02 0.02 0.01 0.01 0.00 0.00 0.00 0.00 0.00 0.00 0.00 0.00 0.00 0.00 0.00 0.00 0.00 0.01 0.01 0.00 0.00 0.00 0.00
0.05 0.05 0.04 0.06 0.07 0.07 0.08 0.08 0.07 0.06 0.05 0.05 0.04 0.03 0.02 0.02 0.02 0.02 0.01 0.01 0.01 0.01 0.00 0.00 0.00 0.00 0.00 0.00 0.00 0.00 0.00 0.00 0.00 0.00 0.00 0.00 0.00 0.00 0.01 0.00 0.00 0.00 0.00
0.06 0.07 0.05 0.04 0.04 0.06 0.07 0.07 0.06 0.05 0.04 0.03 0.02 0.01 0.01 0.00 0.00 0.00 0.00 0.00 0.00 0.00 0.00 0.00 0.00 0.00 0.00 0.00 0.00 0.00 0.01 0.01 0.01 0.00 0.00 0.01 0.00 0.00 0.00 0.00 0.00 0.00 0.00
0.07 0.09 0.07 0.06 0.05 0.04 0.04 0.04 0.03 0.02 0.02 0.01 0.01 0.00 0.00 0.00 0.00 0.00 0.00 0.00 0.00 0.00 0.00 0.00 0.00 0.00 0.00 0.00 0.00 0.01 0.01 0.01 0.01 0.00 0.00 0.01 0.00 0.00 0.00 0.00 0.00 0.00 0.00
0.04 0.05 0.06 0.06 0.06 0.04 0.03 0.03 0.02 0.01 0.01 0.01 0.00 0.00 0.00 0.00 0.00 0.00 0.00 0.00 0.00 0.00 0.00 0.00 0.00 0.00 0.00 0.00 0.00 0.00 0.01 0.01 0.01 0.01 0.00 0.00 0.00 0.01 0.01 0.00 0.00 0.00 0.00
0.03 0.02 0.03 0.04 0.04 0.03 0.02 0.02 0.02 0.02 0.01 0.01 0.00 0.00 0.00 0.00 0.00 0.00 0.00 0.00 0.00 0.00 0.00 0.00 0.00 0.00 0.00 0.00 0.00 0.00 0.01 0.01 0.01 0.01 0.00 0.00 0.00 0.01 0.01 0.00 0.00 0.00 0.00
MSLP
1016.51 1016.57 1016.60 1016.63 1016.68 1016.78 1016.93 1017.13 1017.37 1017.61 1017.83 1018.02 1018.16 1018.26 1018.34 1018.43 1018.55 1018.73 1018.97 1019.27 1019.61 1019.97 1020.32 1020.66 1020.97 1021.25 1021.50 1021.73 1021.95 1022.14 1022.32 1022.46 1022.57 1022.63 1022.65 1022.63 1022.59 1022.55 1022.52 1022.51 1022.52 1022.57 1022.63
1016.60 1016.57 1016.51 1016.46 1016.43 1016.47 1016.58 1016.77 1017.02 1017.30 1017.58 1017.83 1018.04 1018.20 1018.33 1018.44 1018.56 1018.71 1018.91 1019.16 1019.46 1019.78 1020.12 1020.47 1020.81 1021.15 1021.47 1021.78 1022.08 1022.35 1022.59 1022.79 1022.93 1023.01 1023.04 1023.02 1022.98 1022.92 1022.88 1022.86 1022.88 1022.93 1023.00
1016.78 1016.69 1016.56 1016.43 1016.34 1016.33 1016.41 1016.59 1016.85 1017.17 1017.52 1017.84 1018.12 1018.36 1018.54 1018.68 1018.81 1018.95 1019.11 1019.31 1019.55 1019.83 1020.13 1020.46 1020.81 1021.17 1021.54 1021.91 1022.28 1022.63 1022.94 1023.20 1023.39 1023.52 1023.57 1023.56 1023.52 1023.46 1023.41 1023.39 1023.40 1023.45 1023.52
1017.00 1016.86 1016.69 1016.52 1016.39 1016.34 1016.40 1016.57 1016.85 1017.21 1017.60 1017.98 1018.34 1018.65 1018.90 1019.11 1019.27 1019.41 1019.56 1019.73 1019.92 1020.14 1020.39 1020.67 1020.99 1021.34 1021.72 1022.12 1022.54 1022.94 1023.31 1023.64 1023.89 1024.05 1024.15 1024.17 1024.14 1024.09 1024.03 1024.00 1024.01 1024.04 1024.10
1017.17 1017.04 1016.86 1016.68 1016.53 1016.47 1016.51 1016.68 1016.95 1017.31 1017.73 1018.17 1018.59 1018.98 1019.31 1019.59 1019.82 1020.02 1020.19 1020.35 1020.52 1020.69 1020.89 1021.11 1021.37 1021.67 1022.02 1022.41 1022.83 1023.25 1023.66 1024.03 1024.34 1024.56 1024.69 1024.75 1024.74 1024.70 1024.65 1024.62 1024.61 1024.64 1024.69
1017.27 1017.16 1017.01 1016.85 1016.72 1016.65 1016.67 1016.81 1017.06 1017.40 1017.81 1018.27 1018.74 1019.20 1019.62 1020.00 1020.34 1020.62 1020.87 1021.08 1021.25 1021.41 1021.56 1021.72 1021.91 1022.14 1022.42 1022.75 1023.14 1023.55 1023.97 1024.37 1024.71 1024.97 1025.15 1025.24 1025.27 1025.24 1025.20 1025.16 1025.15 1025.16 1025.20
1017.27 1017.22 1017.12 1016.99 1016.88 1016.81 1016.82 1016.90 1017.09 1017.38 1017.75 1018.19 1018.67 1019.18 1019.69 1020.19 1020.66 1021.08 1021.45 1021.75 1021.99 1022.18 1022.32 1022.43 1022.55 1022.70 1022.89 1023.15 1023.47 1023.84 1024.25 1024.64 1025.00 1025.30 1025.51 1025.64 1025.69 1025.69 1025.65 1025.61 1025.59 1025.60 1025.63
1017.21 1017.21 1017.16 1017.09 1017.00 1016.92 1016.89 1016.91 1017.01 1017.20 1017.48 1017.86 1018.33 1018.87 1019.45 1020.07 1020.69 1021.28 1021.80 1022.25 1022.61 1022.87 1023.04 1023.15 1023.23 1023.30 1023.42 1023.59 1023.84 1024.15 1024.51 1024.89 1025.26 1025.57 1025.81 1025.96 1026.03 1026.04 1026.01 1025.97 1025.94 1025.94 1025.96
1017.12 1017.16 1017.16 1017.12 1017.04 1016.95 1016.86 1016.80 1016.78 1016.85 1017.02 1017.31 1017.72 1018.25 1018.89 1019.61 1020.37 1021.14 1021.85 1022.49 1023.00 1023.39 1023.64 1023.79 1023.87 1023.91 1023.97 1024.08 1024.25 1024.50 1024.82 1025.17 1025.52 1025.83 1026.08 1026.24 1026.33 1026.35 1026.33 1026.28 1026.25 1026.23 1026.24
1017.05 1017.10 1017.12 1017.10 1017.02 1016.90 1016.75 1016.59 1016.45 1016.38 1016.42 1016.59 1016.92 1017.42 1018.08 1018.87 1019.76 1020.69 1021.59 1022.42 1023.12 1023.66 1024.05 1024.29 1024.41 1024.47 1024.52 1024.59 1024.72 1024.92 1025.19 1025.50 1025.83 1026.13 1026.37 1026.55 1026.65 1026.67 1026.65 1026.60 1026.55 1026.53 1026.53
1017.01 1017.05 1017.06 1017.03 1016.93 1016.78 1016.57 1016.32 1016.07 1015.87 1015.77 1015.82 1016.06 1016.50 1017.15 1017.98 1018.96 1020.02 1021.09 1022.10 1022.98 1023.70 1024.25 1024.61 1024.84 1024.95 1025.03 1025.10 1025.21 1025.39 1025.62 1025.90 1026.20 1026.49 1026.73 1026.90 1027.00 1027.03 1027.01 1026.96 1026.90 1026.86 1026.85
1017.02 1017.01 1016.98 1016.92 1016.81 1016.62 1016.36 1016.04 1015.71 1015.42 1015.21 1015.15 1015.29 1015.66 1016.27 1017.11 1018.13 1019.27 1020.46 1021.61 1022.65 1023.54 1024.25 1024.76 1025.11 1025.32 1025.46 1025.57 1025.70 1025.87 1026.08 1026.34 1026.62 1026.89 1027.12 1027.29 1027.39 1027.43 1027.42 1027.37 1027.31 1027.26 1027.22
1017.08 1016.99 1016.91 1016.81 1016.66 1016.45 1016.16 1015.82 1015.45 1015.09 1014.82 1014.68 1014.75 1015.04 1015.60 1016.40 1017.41 1018.58 1019.83 1021.06 1022.22 1023.25 1024.09 1024.75 1025.23 1025.56 1025.78 1025.96 1026.12 1026.30 1026.52 1026.76 1027.02 1027.27 1027.49 1027.67 1027.78 1027.84 1027.84 1027.81 1027.75 1027.69 1027.63
1017.19 1017.02 1016.87 1016.72 1016.54 1016.32 1016.04 1015.71 1015.34 1014.98 1014.68 1014.51 1014.52 1014.76 1015.24 1015.98 1016.94 1018.08 1019.31 1020.57 1021.79 1022.89 1023.83 1024.60 1025.20 1025.64 1025.96 1026.21 1026.42 1026.62 1026.84 1027.08 1027.32 1027.57 1027.79 1027.97 1028.11 1028.19 1028.22 1028.21 1028.17 1028.10 1028.03
1017.38 1017.12 1016.90 1016.70 1016.51 1016.29 1016.04 1015.75 1015.43 1015.11 1014.84 1014.67 1014.65 1014.84 1015.26 1015.91 1016.78 1017.83 1019.00 1020.21 1021.41 1022.53 1023.52 1024.36 1025.04 1025.57 1025.97 1026.28 1026.54 1026.77 1027.00 1027.23 1027.47 1027.71 1027.93 1028.13 1028.29 1028.41 1028.48 1028.50 1028.49 1028.44 1028.36
1017.68 1017.34 1017.05 1016.81 1016.61 1016.41 1016.21 1015.98 1015.73 1015.49 1015.28 1015.14 1015.13 1015.28 1015.63 1016.19 1016.94 1017.86 1018.91 1020.03 1021.15 1022.22 1023.21 1024.06 1024.78 1025.36 1025.82 1026.18 1026.47 1026.72 1026.95 1027.18 1027.41 1027.64 1027.87 1028.08 1028.28 1028.44 1028.56 1028.63 1028.66 1028.64 1028.57
1018.13 1017.73 1017.39 1017.12 1016.91 1016.74 1016.58 1016.43 1016.27 1016.11 1015.97 1015.88 1015.89 1016.02 1016.30 1016.76 1017.38 1018.16 1019.05 1020.02 1021.02 1022.00 1022.92 1023.74 1024.46 1025.05 1025.53 1025.91 1026.22 1026.47 1026.70 1026.92 1027.13 1027.36 1027.59 1027.82 1028.05 1028.25 1028.42 1028.55 1028.62 1028.64 1028.59
1018.75 1018.30 1017.94 1017.65 1017.44 1017.29 1017.18 1017.08 1016.99 1016.90 1016.83 1016.80 1016.82 1016.94 1017.17 1017.52 1018.02 1018.64 1019.37 1020.17 1021.02 1021.87 1022.69 1023.45 1024.11 1024.69 1025.16 1025.54 1025.84 1026.09 1026.31 1026.50 1026.70 1026.91 1027.14 1027.38 1027.63 1027.87 1028.08 1028.26 1028.37 1028.43 1028.41
1019.51 1019.06 1018.69 1018.40 1018.19 1018.05 1017.96 1017.90 1017.86 1017.82 1017.80 1017.80 1017.83 1017.93 1018.11 1018.38 1018.76 1019.24 1019.80 1020.45 1021.14 1021.85 1022.55 1023.21 1023.81 1024.34 1024.78 1025.14 1025.43 1025.66 1025.85 1026.03 1026.20 1026.38 1026.59 1026.83 1027.08 1027.33 1027.57 1027.78 1027.94 1028.02 1028.04
1020.36 1019.94 1019.59 1019.31 1019.10 1018.97 1018.88 1018.83 1018.80 1018.78 1018.78 1018.79 1018.83 1018.91 1019.05 1019.25 1019.53 1019.89 1020.32 1020.81 1021.36 1021.93 1022.51 1023.08 1023.60 1024.08 1024.48 1024.81 1025.07 1025.27 1025.44 1025.57 1025.71 1025.86 1026.04 1026.24 1026.48 1026.72 1026.96 1027.18 1027.36 1027.47 1027.51
1021.22 1020.87 1020.56 1020.31 1020.11 1019.96 1019.86 1019.79 1019.74 1019.72 1019.71 1019.71 1019.75 1019.81 1019.92 1020.07 1020.28 1020.55 1020.88 1021.26 1021.68 1022.14 1022.62 1023.09 1023.54 1023.95 1024.30 1024.60 1024.83 1025.00 1025.12 1025.22 1025.32 1025.42 1025.55 1025.71 1025.90 1026.11 1026.33 1026.53 1026.70 1026.82 1026.88
1022.02 1021.75 1021.51 1021.29 1021.11 1020.95 1020.82 1020.72 1020.64 1020.58 1020.54 1020.54 1020.56 1020.61 1020.70 1020.84 1021.01 1021.22 1021.48 1021.78 1022.11 1022.48 1022.86 1023.25 1023.63 1023.98 1024.29 1024.55 1024.74 1024.88 1024.97 1025.03 1025.07 1025.12 1025.18 1025.28 1025.41 1025.56 1025.73 1025.89 1026.04 1026.14 1026.20
1022.67 1022.51 1022.34 1022.18 1022.01 1021.85 1021.70 1021.56 1021.44 1021.34 1021.28 1021.25 1021.27 1021.33 1021.42 1021.55 1021.71 1021.90 1022.12 1022.36 1022.64 1022.94 1023.25 1023.57 1023.89 1024.19 1024.45 1024.66 1024.82 1024.92 1024.97 1024.99 1024.97 1024.96 1024.96 1024.98 1025.03 1025.11 1025.20 1025.31 1025.41 1025.48 1025.53
1023.15 1023.10 1023.02 1022.92 1022.78 1022.63 1022.46 1022.29 1022.13 1022.01 1021.92 1021.89 1021.91 1021.98 1022.09 1022.23 1022.40 1022.59 1022.80 1023.02 1023.25 1023.49 1023.75 1024.01 1024.27 1024.51 1024.73 1024.90 1025.02 1025.09 1025.10 1025.07 1025.00 1024.93 1024.85 1024.80 1024.77 1024.77 1024.78 1024.82 1024.85 1024.88 1024.89
1023.48 1023.54 1023.54 1023.50 1023.41 1023.26 1023.09 1022.91 1022.74 1022.60 1022.52 1022.49 1022.52 1022.61 1022.75 1022.91 1023.10 1023.30 1023.50 1023.70 1023.90 1024.10 1024.30 1024.51 1024.71 1024.90 1025.06 1025.19 1025.27 1025.30 1025.28 1025.20 1025.09 1024.96 1024.83 1024.70 1024.60 1024.51 1024.45 1024.41 1024.38 1024.36 1024.33
1023.73 1023.87 1023.95 1023.97 1023.91 1023.80 1023.64 1023.47 1023.30 1023.16 1023.09 1023.07 1023.13 1023.24 1023.40 1023.59 1023.80 1024.00 1024.19 1024.37 1024.54 1024.69 1024.84 1024.99 1025.13 1025.26 1025.37 1025.46 1025.50 1025.49 1025.43 1025.32 1025.17 1025.00 1024.81 1024.63 1024.47 1024.32 1024.19 1024.09 1024.00 1023.92 1023.84
Thickness
5730 5730 5729 5728 5729 5729 5727 5726 5728 5727 5727 5726 5727 5727 5727 5727 5727 5727 5725 5721 5719 5718 5717 5716 5715 5714 5712 5710 5709 5708 5706 5705 5704 5703 5702 5701 5700 5699 5697 5696 5694 5693 5692
5726 5725 5724 5724 5725 5725 5725 5724 5724 5723 5723 5723 5723 5723 5723 5723 5722 5721 5721 5718 5716 5715 5714 5713 5712 5711 5709 5708 5706 5705 5704 5702 5701 5700 5699 5698 5697 5695 5694 5693 5691 5689 5688
5722 5721 5721 5720 5720 5720 5719 5719 5719 5719 5718 5718 5718 5718 5717 5717 5717 5716 5716 5715 5714 5711 5710 5709 5708 5707 5705 5704 5702 5701 5700 5698 5697 5696 5694 5693 5692 5690 5689 5688 5686 5685 5683
5717 5717 5717 5717 5716 5716 5716 5716 5716 5715 5714 5713 5712 5712 5711 5710 5710 5710 5710 5709 5709 5708 5705 5704 5703 5702 5701 5699 5697 5696 5695 5693 5691 5690 5689 5687 5686 5684 5683 5681 5680 5678 5676
5712 5713 5713 5713 5711 5712 5712 5713 5712 5711 5709 5707 5705 5703 5703 5703 5703 5703 5702 5702 5702 5701 5700 5697 5696 5695 5694 5693 5692 5690 5689 5687 5685 5684 5682 5680 5679 5677 5675 5673 5672 5670 5668
5706 5706 5706 5707 5707 5708 5708 5707 5707 5705 5704 5702 5700 5696 5694 5694 5695 5695 5694 5694 5693 5693 5693 5692 5690 5688 5687 5686 5684 5683 5682 5680 5678 5677 5675 5673 5671 5669 5667 5665 5663 5661 5660
5700 5700 5702 5702 5702 5703 5704 5703 5701 5698 5697 5695 5691 5686 5684 5686 5686 5686 5686 5687 5686 5685 5685 5684 5684 5682 5679 5677 5676 5675 5674 5672 5670 5668 5666 5664 5662 5660 5658 5656 5653 5651 5649
5694 5695 5695 5696 5697 5698 5698 5698 5696 5694 5692 5692 5689 5683 5678 5675 5676 5677 5678 5679 5678 5677 5676 5675 5674 5673 5672 5670 5667 5666 5665 5663 5662 5659 5657 5655 5653 5651 5648 5646 5644 5641 5639
5687 5688 5689 5691 5692 5693 5693 5693 5692 5690 5688 5687 5688 5685 5680 5677 5672 5668 5668 5669 5669 5668 5667 5666 5665 5664 5663 5661 5658 5655 5654 5653 5651 5649 5647 5645 5643 5641 5638 5636 5633 5631 5628
5679 5681 5683 5685 5685 5687 5688 5688 5688 5688 5686 5683 5683 5685 5685 5684 5674 5664 5659 5659 5659 5659 5658 5657 5655 5654 5652 5651 5648 5645 5644 5643 5641 5638 5636 5634 5632 5630 5628 5625 5622 5620 5618
5670 5673 5675 5676 5677 5680 5681 5681 5682 5683 5684 5683 5681 5679 5677 5677 5677 5670 5658 5651 5649 5647 5647 5646 5645 5644 5642 5641 5639 5635 5633 5631 5630 5627 5625 5623 5621 5619 5616 5614 5611 5609 5606
5661 5663 5665 5667 5669 5671 5672 5674 5675 5677 5678 5678 5677 5676 5675 5672 5670 5668 5660 5649 5643 5637 5636 5635 5634 5633 5632 5631 5628 5625 5622 5620 5618 5616 5614 5612 5610 5607 5605 5602 5599 5597 5594
5651 5652 5655 5658 5660 5661 5664 5666 5668 5669 5670 5670 5671 5671 5670 5669 5668 5664 5657 5646 5637 5630 5626 5624 5623 5623 5622 5621 5617 5614 5611 5609 5607 5605 5602 5600 5598 5596 5593 5590 5587 5584 5581
5640 5642 5645 5647 5650 5653 5656 5659 5661 5661 5662 5662 5663 5664 5663 5662 5661 5658 5653 5644 5632 5623 5619 5617 5614 5614 5613 5611 5607 5604 5602 5599 5597 5595 5592 5589 5587 5585 5582 5579 5576 5573 5570
5631 5633 5636 5638 5641 5644 5647 5651 5653 5653 5654 5655 5655 5655 5655 5654 5652 5651 5647 5644 5636 5624 5615 5609 5607 5605 5604 5601 5598 5596 5593 5589 5587 5585 5582 5579 5577 5574 5571 5568 5565 5562 5559
5621 5624 5626 5628 5631 5635 5638 5641 5643 5644 5645 5645 5645 5645 5646 5644 5642 5640 5637 5635 5633 5628 5616 5606 5602 5599 5595 5594 5589 5588 5585 5581 5578 5575 5572 5570 5567 5565 5561 5558 5555 5552 5548
5612 5614 5616 5619 5622 5625 5628 5630 5632 5634 5635 5635 5636 5636 5635 5633 5632 5630 5628 5626 5624 5621 5612 5601 5596 5590 5587 5586 5582 5580 5578 5575 5571 5566 5563 5561 5558 5556 5552 5549 5546 5542 5539
5602 5604 5606 5609 5612 5614 5617 5620 5622 5624 5625 5625 5626 5626 5625 5624 5622 5621 5619 5616 5613 5610 5605 5595 5588 5583 5579 5577 5574 5572 5571 5569 5566 5559 5555 5553 5550 5547 5544 5541 5537 5533 5530
5592 5594 5597 5599 5601 5604 5606 5608 5611 5613 5614 5615 5615 5615 5614 5613 5612 5610 5609 5606 5603 5600 5595 5589 5582 5577 5574 5571 5568 5566 5564 5561 5559 5553 5549 5546 5543 5540 5536 5533 5529 5526 5523
5582 5583 5585 5588 5590 5593 5595 5597 5599 5601 5603 5604 5604 5604 5603 5602 5601 5600 5599 5596 5594 5590 5586 5582 5577 5572 5568 5564 5563 5562 5559 5556 5554 5550 5545 5541 5537 5533 5530 5526 5523 5519 5516
5572 5573 5575 5577 5579 5581 5582 5586 5589 5590 5592 5593 5592 5591 5589 5588 5587 5589 5589 5586 5585 5583 5579 5575 5571 5567 5564 5560 5559 5557 5555 5551 5547 5545 5542 5539 5535 5531 5526 5522 5518 5514 5511
5561 5562 5563 5565 5566 5567 5568 5572 5576 5579 5580 5581 5581 5579 5578 5577 5575 5575 5574 5573 5572 5573 5571 5569 5566 5561 5556 5554 5551 5551 5549 5547 5543 5539 5537 5535 5532 5529 5525 5521 5514 5510 5507
5549 5551 5552 5553 5552 5552 5555 5559 5563 5566 5568 5569 5569 5569 5569 5566 5567 5565 5562 5561 5559 5558 5558 5559 5558 5554 5550 5546 5544 5543 5540 5539 5535 5533 5530 5530 5527 5524 5521 5516 5510 5506 5503
5538 5540 5541 5541 5541 5540 5543 5547 5551 5555 5556 5557 5557 5558 5557 5556 5556 5557 5557 5555 5552 5549 5548 5549 5547 5544 5541 5537 5535 5534 5532 5529 5527 5525 5523 5524 5522 5520 5517 5513 5507 5503 5501
5529 5531 5531 5531 5532 5531 5533 5537 5542 5545 5545 5546 5547 5546 5547 5545 5542 5544 5547 5546 5544 5540 5537 5536 5534 5532 5529 5527 5526 5528 5528 5528 5525 5523 5520 5519 5517 5516 5514 5512 5507 5503 5500
5521 5523 5522 5523 5523 5524 5524 5528 5533 5539 5538 5539 5537 5536 5533 5534 5533 5535 5539 5538 5536 5534 5533 5530 5526 5524 5523 5521 5519 5519 5522 5522 5520 5518 5514 5513 5513 5512 5510 5510 5508 5505 5502